Weather History for CZRP - October, 2012

Change the Weather History Date:

Saturday, October 6, 2012

  Actual Average Record
Temperature  
Mean Temperature 14 °F -  
Max Temperature 26 °F - - ()
Min Temperature 1 °F - - ()
Degree Days  
Heating Degree Days 52    
Moisture  
Dew Point 11 °F    
Average Humidity 88    
Maximum Humidity 94    
Minimum Humidity 81    
Precipitation  
Precipitation 0.00 in - - ()
Sea Level Pressure  
Sea Level Pressure 30.04 in    
Wind  
Wind Speed 12 mph ()    
Max Wind Speed 21 mph    
Max Gust Speed -    
T = Trace of Precipitation, MM = Missing Value Source: Averaged Metar Reports

Daily Weather History Graph

Daily Weather History Graph

Search for Another Location

Airport or City:

Trip Planner

Search our weather history database for the weather conditions in past years. The results will help you decide how hot, cold, wet, or windy it might be!

Date:

Astronomy

Oct. 06, 2012 Rise Set
Actual Time 8:01 AM MDT 5:37 PM MDT
Civil Twilight 6:38 AM MDT 7:00 PM MDT
Nautical Twilight 4:59 AM MDT 8:37 PM MDT
Astronomical Twilight 2:48 AM MDT 10:43 PM MDT
Moon No Moon Rise No Moon Set
Length of Visible Light 12h 21m
Length of Day
9h 35m
Waning Gibbous, 65% of the Moon is Illuminated
Oct 6
Waning Gibbous
Oct 8
Last Quarter
Oct 15
New
Oct 21
First Quarter
Oct 29
Full

Hourly Weather History & Observations

Time (MDT) Temp. Windchill Dew Point Humidity Pressure Visibility Wind Dir Wind Speed Gust Speed Precip Events Conditions
12:00 AM 26 °F - 24 °F 91% 29.92 in - WSW 10.4 mph - -  
12:00 AM 26.2 °F 16.4 °F 24.4 °F 93% 29.92 in - WSW 10.4 mph - N/A   Unknown
1:00 AM 25.9 °F 14.3 °F 23.9 °F 92% 29.92 in - WSW 13.8 mph - N/A   Unknown
2:00 AM 23.7 °F 12.1 °F 22.3 °F 94% 29.92 in - WSW 12.7 mph - N/A   Unknown
3:00 AM 25.0 °F 13.6 °F 23.5 °F 94% 29.93 in - WNW 12.7 mph - N/A   Unknown
4:00 AM 19.4 °F 3.2 °F 17.1 °F 91% 29.95 in - WNW 20.7 mph - N/A   Unknown
5:00 AM 15.8 °F 0.3 °F 12.9 °F 88% 29.97 in - WNW 16.1 mph - N/A   Unknown
6:00 AM 14 °F - 11 °F 82% 29.98 in - West 19.6 mph - -  
6:00 AM 14.0 °F -3.4 °F 10.9 °F 88% 29.98 in - West 19.6 mph - N/A   Unknown
7:00 AM 13.8 °F -3.7 °F 10.9 °F 88% 29.99 in - WNW 19.6 mph - N/A   Unknown
8:00 AM 14.5 °F -0.7 °F 12.4 °F 91% 30.00 in - NW 15.0 mph - N/A   Unknown
9:00 AM 16.9 °F 1.2 °F 15.1 °F 93% 30.00 in - WNW 17.3 mph - N/A   Unknown
10:00 AM 16.2 °F 2.5 °F 13.8 °F 90% 30.02 in - WNW 12.7 mph - N/A   Unknown
11:00 AM 16.7 °F 3.8 °F 14.2 °F 90% 30.03 in - NW 11.5 mph - N/A   Unknown
12:00 PM 18 °F - 15 °F 83% 30.03 in - NW 13.8 mph - -  
12:00 PM 18.0 °F 4.2 °F 15.1 °F 88% 30.03 in - NW 13.8 mph - N/A   Unknown
1:00 PM 17.8 °F 2.9 °F 14.4 °F 86% 30.05 in - NW 16.1 mph - N/A   Unknown
2:00 PM 13.1 °F -3.7 °F 9.7 °F 86% 30.07 in - NW 17.3 mph - N/A   Unknown
3:00 PM 10.4 °F -6.6 °F 7.0 °F 86% 30.09 in - NW 16.1 mph - N/A   Unknown
4:00 PM 7.9 °F -7.2 °F 4.1 °F 85% 30.12 in - NW 11.5 mph - N/A   Unknown
5:00 PM 5.4 °F -12.5 °F 2.1 °F 86% 30.13 in - WNW 15.0 mph - N/A   Unknown
6:00 PM 4 °F - 1 °F 81% 30.14 in - WNW 13.8 mph - -  
6:00 PM 4.3 °F -13.2 °F 1.0 °F 86% 30.14 in - WNW 13.8 mph - N/A   Unknown
7:00 PM 1.9 °F -9.2 °F -1.1 °F 87% 30.16 in - NW 5.8 mph - N/A   Unknown
8:00 PM 3.6 °F -11.8 °F 0.7 °F 88% 30.16 in - NW 10.4 mph - N/A   Unknown
9:00 PM 3.2 °F -9.1 °F 0.5 °F 89% 30.17 in - WNW 6.9 mph - N/A   Unknown
10:00 PM 3.4 °F -14.4 °F 0.3 °F 87% 30.17 in - West 13.8 mph - N/A   Unknown
11:00 PM 3.6 °F -14.1 °F 0.5 °F 87% 30.18 in - West 13.8 mph - N/A   Unknown